1512144000.65,61974,8.0,72578.5,-15.41,-45.13,-45.13,0,*6C
1512144001.86,61975,8.0,72586.0,-15.41,-45.13,-45.13,0,*6D
1512144003.16,61976,8.0,72580.5,-15.39,-45.27,-45.27,0,*61
1512144004.38,61977,8.0,72582.3,-15.41,-45.53,-45.41,0,*6C
1512144005.6,61978,8.0,72578.0,-15.41,-45.67,-45.61,0,*66
1512144006.82,61979,8.0,72574.8,-15.41,-45.61,-45.41,0,*63
1512144008.07,61980,8.0,72576.3,-15.41,-45.27,-45.33,0,*62
1512144009.3,61981,8.0,72572.8,-15.41,-45.81,-45.67,0,*6E
1512144010.54,61982,8.0,72572.5,-15.39,-45.53,-45.33,0,*6C
1512144011.76,61983,8.0,72574.0,-15.41,-45.33,-45.33,0,*64
1512144012.97,61984,8.0,72580.5,-15.41,-45.33,-45.21,0,*60
1512144014.27,61985,8.0,72582.3,-15.39,-45.27,-45.27,0,*6D
1512144015.51,61986,8.0,72578.8,-15.39,-45.53,-45.53,0,*6E
1512144016.72,61987,8.0,72580.3,-15.41,-45.87,-45.67,0,*6E
1512144017.94,61988,8.0,72578.0,-15.41,-45.87,-45.87,0,*6F
1512144019.19,61989,8.0,72572.8,-15.41,-46.01,-46.07,0,*68
1512144020.43,61990,8.0,72574.8,-15.43,-45.61,-45.53,0,*65
1512144021.67,61991,8.0,72574.3,-15.43,-45.67,-45.61,0,*63
1512144022.92,61992,8.0,72572.8,-15.41,-46.01,-45.81,0,*6F
1512144024.17,61993,8.0,72576.3,-15.39,-46.01,-46.01,0,*6A
1512144025.41,61994,8.0,72582.8,-15.41,-46.07,-46.21,0,*66
1512144026.69,61995,8.0,72576.5,-15.41,-46.07,-46.07,0,*63
1512144027.95,61996,8.0,72576.0,-15.43,-45.87,-45.81,0,*64
1512144029.17,61997,8.0,72572.8,-15.45,-45.61,-45.61,0,*65
1512144030.4,61998,8.0,72578.5,-15.43,-45.33,-45.33,0,*6C
1512144031.69,61999,8.0,72578.0,-15.43,-45.81,-45.81,0,*6D
1512144032.96,62000,8.0,72576.0,-15.45,-46.07,-46.07,0,*61
1512144034.23,62001,8.0,72576.5,-15.43,-46.07,-46.01,0,*60
1512144035.47,62002,8.0,72580.5,-15.45,-46.07,-45.95,0,*6B
1512144036.71,62003,8.0,72576.5,-15.45,-46.07,-45.95,0,*6A
1512144037.95,62004,8.0,72576.8,-15.43,-46.01,-45.87,0,*6E
1512144039.23,62005,8.0,72580.3,-15.45,-46.07,-46.07,0,*64
1512144040.47,62006,8.0,72580.8,-15.45,-46.21,-46.07,0,*63
1512144041.75,62007,8.0,72582.3,-15.45,-46.27,-46.27,0,*66
1512144043.02,62008,8.0,72582.3,-15.45,-46.15,-46.07,0,*6A
1512144044.24,62009,8.0,72584.0,-15.45,-45.95,-45.87,0,*6B
1512144045.54,62010,8.0,72582.8,-15.47,-46.15,-46.15,0,*62
1512144046.84,62011,8.0,72582.0,-15.47,-46.15,-46.15,0,*63
1512144048.12,62012,8.0,72586.3,-15.47,-46.35,-46.49,0,*6B
1512144049.39,62013,8.0,72584.0,-15.47,-46.35,-46.27,0,*62
1512144050.69,62014,8.0,72584.8,-15.47,-46.15,-46.15,0,*66
1512144051.99,62015,8.0,72586.0,-15.47,-46.49,-46.49,0,*67
1512144053.27,62016,8.0,72588.0,-15.47,-46.35,-46.15,0,*66
1512144054.51,62017,8.0,72586.3,-15.49,-46.41,-46.55,0,*6E
1512144055.76,62018,8.0,72586.0,-15.49,-46.41,-46.21,0,*62
1512144056.97,62019,8.0,72586.8,-15.49,-46.21,-46.35,0,*60
1512144058.2,62020,8.0,72588.5,-15.49,-46.35,-46.55,0,*69
1512144059.47,62021,8.0,72584.3,-15.51,-46.35,-46.41,0,*64
1512144060.72,62022,8.0,72588.8,-15.51,-46.35,-46.35,0,*64
1512144062.01,62023,8.0,72590.5,-15.51,-46.41,-46.41,0,*65
1512144063.24,62024,8.0,72588.0,-15.53,-46.35,-46.21,0,*65
1512144064.49,62025,8.0,72588.8,-15.53,-46.35,-46.41,0,*62
1512144065.73,62026,8.0,72586.8,-15.51,-46.55,-46.55,0,*60
1512144066.98,62027,8.0,72590.3,-15.53,-46.55,-46.41,0,*66
1512144068.25,62028,8.0,72588.0,-15.53,-46.41,-46.41,0,*6C
1512144069.5,62029,8.0,72584.8,-15.53,-46.55,-46.41,0,*68
1512144070.75,62030,8.0,72590.5,-15.53,-46.55,-46.41,0,*60
1512144072.02,62031,8.0,72590.8,-15.53,-46.41,-46.41,0,*64
1512144073.31,62032,8.0,72590.3,-15.57,-46.27,-46.27,0,*63
1512144074.61,62033,8.0,72590.3,-15.57,-46.61,-46.49,0,*68
1512144075.9,62034,8.0,72590.3,-15.57,-46.41,-46.49,0,*6D
1512144077.16,62035,8.0,72590.5,-15.57,-45.73,-45.53,0,*66
1512144078.42,62036,8.0,72594.0,-15.57,-45.87,-45.73,0,*6C
1512144079.68,62037,8.0,72584.5,-15.57,-45.73,-45.61,0,*65
1512144080.94,62038,8.0,72594.0,-15.57,-45.73,-45.53,0,*6B
1512144082.21,62039,7.94,72588.5,-15.57,-46.07,-45.87,0,*63
1512144083.45,62040,8.0,72588.0,-15.57,-45.61,-45.53,0,*67
1512144084.71,62041,8.0,72588.8,-15.57,-45.73,-45.53,0,*65
1512144085.95,62042,8.0,72588.8,-15.53,-45.73,-45.67,0,*65
1512144087.19,62043,8.0,72588.8,-15.53,-45.67,-45.47,0,*63
1512144088.42,62044,8.0,72590.3,-15.53,-45.53,-45.33,0,*60
1512144089.66,62045,8.0,72584.8,-15.51,-45.53,-45.33,0,*63
1512144090.9,62046,8.0,72584.5,-15.53,-45.81,-45.67,0,*6C
1512144092.16,62047,8.0,72586.8,-15.51,-45.73,-45.53,0,*65
1512144093.4,62048,8.0,72584.3,-15.53,-45.73,-45.67,0,*6F
1512144094.65,62049,8.0,72588.0,-15.53,-46.01,-45.81,0,*60
1512144095.9,62050,8.0,72586.8,-15.51,-46.21,-46.21,0,*61
1512144097.12,62051,8.0,72588.5,-15.53,-46.21,-46.21,0,*62
1512144098.38,62052,8.0,72586.3,-15.53,-45.73,-45.73,0,*61
1512144099.6,62053,8.0,72588.3,-15.53,-45.67,-45.67,0,*60
1512144100.82,62054,8.0,72588.0,-15.53,-46.01,-45.95,0,*69
1512144102.08,62055,8.0,72584.3,-15.57,-45.73,-45.61,0,*61
1512144103.33,62056,8.0,72586.3,-15.53,-45.53,-45.47,0,*60
1512144104.58,62057,8.0,72586.0,-15.53,-45.73,-45.53,0,*66
1512144105.84,62058,8.0,72584.8,-15.51,-45.53,-45.47,0,*6C
1512144107.07,62059,8.0,72584.5,-15.51,-45.33,-45.13,0,*6A
1512144108.29,62060,8.0,72582.0,-15.53,-45.33,-45.13,0,*62
1512144109.55,62061,8.0,72580.0,-15.53,-45.47,-45.47,0,*61
1512144110.8,62062,8.0,72582.8,-15.51,-45.67,-45.53,0,*67
1512144112.06,62063,8.0,72584.5,-15.53,-45.73,-45.73,0,*63
1512144113.33,62064,8.0,72584.0,-15.51,-46.15,-45.95,0,*6D
1512144114.58,62065,8.0,72586.8,-15.53,-45.53,-45.47,0,*60
1512144115.84,62066,8.0,72580.8,-15.51,-45.67,-45.47,0,*66
1512144117.11,62067,8.0,72584.0,-15.51,-46.15,-45.95,0,*6E
1512144118.37,62068,8.0,72584.0,-15.53,-46.01,-45.81,0,*63
1512144119.6,62069,8.0,72584.3,-15.53,-45.73,-45.67,0,*6C
1512144120.89,62070,8.0,72584.8,-15.51,-45.81,-45.73,0,*6E
1512144122.13,62071,8.0,72584.0,-15.53,-45.81,-45.67,0,*68
1512144123.43,62072,8.0,72586.5,-15.51,-46.15,-46.15,0,*61
1512144124.7,62073,8.0,72582.0,-15.51,-46.21,-46.15,0,*67
1512144125.93,62074,8.0,72580.5,-15.53,-46.35,-46.21,0,*60
1512144127.15,62075,8.0,72584.8,-15.53,-46.21,-46.21,0,*64
1512144128.37,62076,8.0,72586.3,-15.53,-46.21,-46.21,0,*67
1512144129.63,62077,8.0,72586.3,-15.53,-46.15,-46.01,0,*63
1512144130.91,62078,8.0,72584.0,-15.51,-46.01,-45.81,0,*60
1512144132.13,62079,8.0,72584.5,-15.53,-46.01,-45.95,0,*66
1512144133.41,62080,8.0,72580.8,-15.53,-46.15,-46.15,0,*6E
1512144134.66,62081,8.0,72584.0,-15.53,-46.21,-46.41,0,*69
1512144135.96,62082,8.0,72586.8,-15.57,-46.27,-46.27,0,*68
1512144137.22,62083,8.0,72584.3,-15.57,-46.41,-46.21,0,*6F
1512144138.48,62084,8.0,72584.3,-15.57,-45.73,-45.53,0,*6C
1512144139.75,62085,8.0,72588.8,-15.57,-46.01,-45.81,0,*64
1512144140.99,62086,8.0,72584.5,-15.57,-45.41,-45.33,0,*69
1512144142.23,62087,8.0,72584.3,-15.57,-45.53,-45.41,0,*6E
1512144143.47,62088,8.0,72584.8,-15.57,-45.61,-45.53,0,*63
1512144144.74,62089,8.0,72586.0,-15.57,-46.01,-45.81,0,*68
1512144145.96,62090,8.0,72586.0,-15.59,-46.21,-46.01,0,*67
1512144147.2,62091,8.0,72586.0,-15.57,-46.21,-46.21,0,*6A
1512144148.47,62092,8.0,72580.3,-15.57,-46.21,-46.07,0,*6D
1512144149.72,62093,8.0,72584.0,-15.53,-46.21,-46.15,0,*6B
1512144150.99,62094,8.0,72582.0,-15.57,-46.41,-46.21,0,*69
1512144152.24,62095,8.0,72582.0,-15.57,-46.01,-46.01,0,*6E
1512144153.48,62096,7.94,72580.5,-15.59,-46.21,-46.07,0,*67
1512144154.75,62097,8.0,72588.3,-15.57,-46.01,-45.81,0,*67
1512144155.96,62098,8.0,72584.0,-15.59,-46.01,-45.87,0,*60
1512144157.22,62099,8.0,72584.5,-15.57,-45.73,-45.53,0,*60
1512144158.51,62100,8.0,72584.3,-15.57,-45.81,-45.81,0,*63
1512144159.78,62101,8.0,72584.3,-15.57,-46.01,-45.81,0,*69
1512144161.02,62102,8.0,72584.3,-15.57,-45.87,-45.87,0,*61
1512144162.25,62103,8.0,72584.3,-15.57,-45.87,-45.87,0,*60
1512144163.5,62104,8.0,72588.0,-15.57,-46.21,-46.01,0,*65
1512144164.74,62105,8.0,72582.8,-15.59,-46.27,-46.21,0,*6E
1512144166.01,62106,8.0,72588.0,-15.57,-46.21,-46.07,0,*61
1512144167.27,62107,8.0,72586.8,-15.59,-46.41,-46.41,0,*6A
1512144168.53,62108,8.0,72586.8,-15.59,-46.41,-46.41,0,*65
1512144169.79,62109,8.0,72582.3,-15.59,-46.61,-46.41,0,*66
1512144171.09,62110,8.0,72586.0,-15.61,-46.49,-46.15,0,*6E
1512144172.33,62111,8.0,72586.5,-15.61,-45.95,-45.87,0,*65
1512144173.6,62112,8.0,72584.5,-15.61,-46.15,-45.95,0,*6E
1512144174.84,62113,8.0,72586.5,-15.61,-45.95,-45.95,0,*64
1512144176.1,62114,8.0,72578.5,-15.61,-46.07,-45.87,0,*68
1512144177.37,62115,8.0,72576.5,-15.61,-45.95,-45.81,0,*67
1512144178.61,62116,8.0,72576.0,-15.61,-45.61,-45.61,0,*61
1512144179.88,62117,8.0,72578.3,-15.61,-45.81,-45.61,0,*6E
1512144181.12,62118,8.0,72576.3,-15.61,-45.61,-45.61,0,*6F
1512144182.33,62119,8.0,72578.5,-15.59,-45.13,-45.13,0,*65
1512144183.53,62120,7.94,72576.5,-15.59,-45.41,-45.21,0,*69
1512144184.77,62121,8.0,72582.3,-15.59,-45.81,-45.61,0,*60
1512144186.01,62122,7.94,72582.5,-15.57,-46.21,-46.01,0,*61
1512144187.28,62123,8.0,72584.5,-15.57,-46.21,-46.07,0,*66
1512144188.5,62124,8.0,72584.8,-15.59,-46.21,-46.01,0,*69
1512144189.74,62125,8.0,72588.0,-15.59,-46.07,-46.01,0,*6C
1512144190.96,62126,8.0,72590.0,-15.59,-46.21,-46.01,0,*6B
1512144192.22,62127,8.0,72588.8,-15.61,-45.81,-45.61,0,*6D
1512144193.44,62128,8.0,72588.5,-15.59,-45.61,-45.61,0,*67
1512144194.65,62129,8.0,72590.8,-15.59,-45.53,-45.41,0,*65
1512144195.86,62130,8.0,72588.3,-15.59,-45.41,-45.33,0,*6B
1512144197.14,62131,8.0,72590.8,-15.57,-45.81,-45.81,0,*61
1512144198.38,62132,7.94,72588.5,-15.59,-46.27,-46.21,0,*6A
1512144199.65,62133,8.0,72590.0,-15.59,-46.27,-46.27,0,*6D
1512144200.91,62134,8.0,72592.8,-15.59,-46.41,-46.27,0,*6A
1512144202.16,62135,7.94,72588.8,-15.59,-46.27,-46.21,0,*6D
1512144203.37,62136,8.0,72588.8,-15.59,-46.21,-46.21,0,*68
1512144204.61,62137,7.94,72588.3,-15.59,-46.27,-46.21,0,*6F
1512144205.86,62138,8.0,72588.3,-15.59,-46.41,-46.41,0,*66
1512144207.16,62139,8.0,72588.0,-15.61,-46.69,-46.49,0,*6E
1512144208.43,62140,8.0,72588.8,-15.61,-46.69,-46.55,0,*6D
1512144209.65,62141,8.0,72588.0,-15.63,-46.55,-46.55,0,*61
1512144210.89,62142,8.0,72588.3,-15.63,-46.69,-46.75,0,*6F
1512144212.11,62143,7.94,72584.8,-15.63,-46.75,-46.75,0,*63
1512144213.32,62144,8.0,72588.0,-15.63,-46.55,-46.55,0,*64
1512144214.6,62145,8.0,72588.3,-15.63,-46.49,-46.49,0,*65
1512144215.87,62146,8.0,72588.8,-15.63,-46.49,-46.27,0,*6E
1512144217.11,62147,8.0,72588.0,-15.65,-46.75,-46.75,0,*61
1512144218.34,62148,7.94,72586.0,-15.67,-46.83,-46.75,0,*65
1512144219.56,62149,8.0,72588.3,-15.67,-46.75,-46.83,0,*64
1512144220.79,62150,8.0,72588.8,-15.67,-46.83,-46.83,0,*65
1512144222.01,62151,8.0,72584.8,-15.67,-46.75,-46.83,0,*6D
1512144223.25,62152,8.0,72588.0,-15.67,-46.61,-46.55,0,*60
1512144224.47,62153,8.0,72588.8,-15.67,-46.35,-46.21,0,*63
1512144225.72,62154,8.0,72590.3,-15.67,-46.21,-46.15,0,*66
1512144226.97,62155,8.0,72586.5,-15.67,-46.15,-46.01,0,*65
1512144228.27,62156,8.0,72588.0,-15.69,-46.41,-46.07,0,*6F
1512144229.56,62157,7.94,72586.3,-15.69,-46.41,-46.41,0,*6C
1512144230.8,62158,8.0,72590.8,-15.71,-46.41,-46.21,0,*6C
1512144232.07,62159,7.94,72584.0,-15.69,-46.21,-46.07,0,*66
1512144233.34,62160,7.94,72584.5,-15.69,-45.95,-45.81,0,*6D
1512144234.57,62161,8.0,72586.3,-15.67,-46.35,-46.35,0,*67
1512144235.84,62162,8.0,72584.5,-15.71,-46.27,-46.07,0,*61
1512144237.14,62163,7.94,72584.8,-15.69,-46.49,-46.49,0,*6B
1512144238.45,62164,8.0,72586.3,-15.69,-46.49,-46.27,0,*64
1512144239.72,62165,8.0,72586.3,-15.69,-46.01,-45.81,0,*66
1512144240.97,62166,8.0,72590.0,-15.71,-46.07,-46.01,0,*61
1512144242.25,62167,7.94,72586.5,-15.71,-46.27,-46.07,0,*64
1512144243.52,62168,8.0,72586.8,-15.69,-45.95,-45.81,0,*65
1512144244.78,62169,7.94,72584.3,-15.69,-45.95,-45.73,0,*69
1512144246.06,62170,7.94,72584.8,-15.69,-46.07,-46.01,0,*6F
1512144247.27,62171,8.0,72588.0,-15.71,-45.33,-45.41,0,*64
1512144248.52,62172,7.94,72584.5,-15.69,-45.53,-45.53,0,*6B
1512144249.79,62173,7.94,72586.3,-15.69,-46.01,-45.81,0,*61
1512144251.01,62174,8.0,72584.5,-15.71,-46.01,-45.95,0,*6A
1512144252.26,62175,8.0,72584.5,-15.69,-45.61,-45.61,0,*6C
1512144253.51,62176,8.0,72588.8,-15.69,-45.53,-45.41,0,*6C
1512144254.76,62177,7.94,72584.8,-15.69,-45.61,-45.53,0,*6F
1512144256.02,62178,7.94,72582.8,-15.67,-45.07,-45.07,0,*6F
1512144257.26,62179,7.94,72580.3,-15.67,-45.33,-45.27,0,*6B
1512144258.48,62180,8.0,72582.0,-15.67,-45.53,-45.53,0,*68
1512144259.72,62181,8.0,72582.8,-15.67,-45.47,-45.33,0,*6A
1512144260.98,62182,7.94,72580.5,-15.67,-45.47,-45.47,0,*6A
1512144262.2,62183,7.94,72582.3,-15.67,-45.67,-45.53,0,*6C
1512144263.45,62184,7.94,72580.5,-15.65,-45.67,-45.53,0,*69
1512144264.69,62185,7.94,72578.5,-15.65,-45.53,-45.33,0,*69
1512144265.96,62186,7.94,72580.8,-15.65,-45.33,-45.27,0,*69
1512144267.23,62187,8.0,72582.3,-15.65,-45.53,-45.47,0,*68
1512144268.46,62188,8.0,72580.3,-15.63,-45.41,-45.47,0,*62
1512144269.71,62189,8.0,72582.8,-15.63,-45.27,-45.21,0,*63
1512144270.95,62190,7.94,72576.8,-15.63,-45.47,-45.41,0,*6B
1512144272.19,62191,8.0,72580.3,-15.63,-45.47,-45.41,0,*6A
1512144273.4,62192,7.94,72576.5,-15.63,-45.41,-45.41,0,*6F
1512144274.65,62193,8.0,72578.3,-15.63,-45.27,-45.41,0,*6E
1512144275.87,62194,7.94,72576.3,-15.63,-45.21,-44.99,0,*6B
1512144277.13,62195,8.0,72578.3,-15.61,-45.61,-45.47,0,*6E
1512144278.35,62196,7.94,72572.0,-15.63,-45.41,-45.41,0,*6B
1512144279.59,62197,7.94,72578.5,-15.63,-45.61,-45.47,0,*6E
1512144280.8,62198,8.0,72578.8,-15.63,-45.67,-45.61,0,*63
1512144282.06,62199,7.94,72578.8,-15.61,-45.81,-45.67,0,*6E
1512144283.33,62200,8.0,72582.0,-15.61,-46.07,-45.87,0,*6E
1512144284.57,62201,7.94,72580.0,-15.61,-45.95,-45.87,0,*67
1512144285.81,62202,7.94,72580.0,-15.63,-46.07,-45.87,0,*6E
1512144287.06,62203,8.0,72586.0,-15.63,-46.15,-45.95,0,*6F
1512144288.33,62204,7.94,72584.8,-15.61,-46.27,-45.95,0,*6B
1512144289.57,62205,8.0,72584.5,-15.63,-46.15,-45.95,0,*69
1512144290.85,62206,7.94,72584.3,-15.63,-46.15,-46.07,0,*62
1512144292.13,62207,8.0,72588.3,-15.63,-46.27,-46.15,0,*61
1512144293.4,62208,7.94,72584.3,-15.63,-46.15,-46.07,0,*6C
1512144294.62,62209,8.0,72586.0,-15.63,-45.95,-45.87,0,*6D
1512144295.84,62210,8.0,72584.5,-15.63,-45.61,-45.61,0,*66
1512144297.05,62211,7.94,72584.5,-15.63,-45.87,-45.67,0,*69
1512144298.29,62212,7.94,72584.8,-15.63,-45.81,-45.61,0,*6A
1512144299.53,62213,7.94,72586.5,-15.63,-46.07,-45.87,0,*6E
1512144300.81,62214,7.94,72586.3,-15.65,-46.15,-46.01,0,*61
1512144302.07,62215,7.94,72586.5,-15.65,-45.73,-45.67,0,*60
1512144303.34,62216,7.94,72584.0,-15.65,-46.15,-45.95,0,*6D
1512144304.62,62217,8.0,72590.5,-15.63,-46.27,-46.15,0,*60
1512144305.86,62218,7.94,72588.5,-15.63,-46.15,-45.95,0,*65
1512144307.08,62219,8.0,72590.3,-15.63,-45.95,-45.95,0,*6F
1512144308.32,62220,7.94,72586.0,-15.65,-45.33,-45.33,0,*63
1512144309.58,62221,8.0,72584.3,-15.65,-45.67,-45.47,0,*60
1512144310.82,62222,7.94,72580.3,-15.63,-45.87,-45.81,0,*61
1512144312.1,62223,7.94,72582.8,-15.65,-46.15,-45.87,0,*68
1512144313.33,62224,8.0,72590.0,-15.63,-45.87,-45.81,0,*67
1512144314.56,62225,7.94,72582.0,-15.63,-44.99,-44.87,0,*6F
1512144315.78,62226,7.94,72582.8,-15.63,-44.87,-44.79,0,*62
1512144317.02,62227,7.94,72578.5,-15.63,-45.61,-45.47,0,*66
1512144318.24,62228,8.0,72586.5,-15.63,-45.95,-45.87,0,*6E
1512144319.5,62229,7.94,72584.8,-15.61,-46.07,-45.87,0,*65
1512144320.8,62230,7.94,72586.8,-15.61,-46.07,-46.07,0,*66
1512144322.08,62231,8.0,72584.3,-15.65,-46.35,-46.15,0,*61
1512144323.35,62232,7.94,72584.5,-15.63,-46.15,-46.07,0,*65
1512144324.57,62233,7.94,72582.5,-15.63,-45.95,-45.87,0,*64
1512144325.81,62234,7.94,72586.3,-15.63,-45.95,-45.81,0,*65
1512144327.03,62235,7.94,72584.8,-15.63,-45.95,-45.95,0,*61
1512144328.3,62236,8.0,72590.8,-15.63,-46.15,-46.07,0,*61
1512144329.58,62237,7.94,72586.3,-15.63,-46.27,-46.27,0,*63
1512144330.85,62238,8.0,72588.0,-15.63,-46.15,-46.27,0,*6D
1512144332.07,62239,7.94,72586.3,-15.67,-46.21,-46.21,0,*69
1512144333.32,62240,8.0,72586.8,-15.65,-46.35,-46.35,0,*65
1512144334.57,62241,8.0,72586.0,-15.65,-46.35,-46.35,0,*64
1512144335.82,62242,8.0,72584.3,-15.65,-46.35,-46.21,0,*62
1512144337.07,62243,7.94,72582.3,-15.67,-46.21,-46.15,0,*63
1512144338.29,62244,7.94,72580.0,-15.67,-46.01,-46.01,0,*63
1512144339.54,62245,8.0,72580.8,-15.65,-46.35,-46.35,0,*60
1512144340.81,62246,7.94,72582.3,-15.67,-46.41,-46.41,0,*61
1512144342.06,62247,7.94,72582.0,-15.65,-46.35,-46.21,0,*67
1512144343.31,62248,7.94,72584.8,-15.65,-46.21,-46.01,0,*6F
1512144344.59,62249,7.94,72584.8,-15.65,-46.15,-46.01,0,*69
1512144345.8,62250,7.94,72582.5,-15.67,-45.87,-45.95,0,*65
1512144347.01,62251,7.94,72584.0,-15.67,-45.87,-45.67,0,*69
1512144348.23,62252,8.0,72580.8,-15.67,-45.95,-45.95,0,*64
1512144349.45,62253,8.0,72580.5,-15.67,-46.21,-46.01,0,*67
1512144350.71,62254,7.94,72582.3,-15.67,-46.15,-46.01,0,*67
1512144351.94,62255,7.94,72580.5,-15.67,-45.73,-45.87,0,*68
1512144353.2,62256,8.0,72586.3,-15.65,-45.87,-45.73,0,*69
1512144354.41,62257,7.94,72584.3,-15.67,-45.87,-45.67,0,*6F
1512144355.7,62258,8.0,72584.3,-15.65,-45.73,-45.73,0,*6C
1512144356.97,62259,7.94,72582.8,-15.65,-45.47,-45.33,0,*6E
1512144358.23,62260,8.0,72584.3,-15.65,-45.53,-45.47,0,*62
1512144359.45,62261,7.94,72584.0,-15.67,-45.95,-45.87,0,*67
1512144360.73,62262,7.94,72584.5,-15.67,-46.15,-46.15,0,*67
1512144361.98,62263,7.94,72584.8,-15.65,-46.35,-46.35,0,*64
1512144363.24,62264,7.94,72586.3,-15.65,-46.41,-46.35,0,*60
1512144364.49,62265,7.94,72582.0,-15.67,-46.21,-46.15,0,*67
1512144365.76,62266,7.94,72584.5,-15.65,-46.01,-45.73,0,*67
1512144367.03,62267,7.94,72584.0,-15.65,-45.87,-45.73,0,*6B
1512144368.27,62268,7.94,72586.0,-15.67,-46.21,-46.15,0,*6A
1512144369.5,62269,7.94,72586.8,-15.67,-45.73,-45.67,0,*69
1512144370.78,62270,7.94,72584.0,-15.67,-45.27,-45.27,0,*64
1512144372.03,62271,7.94,72582.5,-15.65,-46.01,-45.95,0,*69
1512144373.27,62272,7.94,72584.0,-15.67,-46.21,-46.15,0,*61
1512144374.52,62273,7.94,72590.8,-15.65,-46.21,-46.21,0,*65
1512144375.74,62274,7.94,72586.5,-15.67,-46.35,-46.21,0,*65
1512144376.98,62275,7.94,72588.0,-15.65,-46.21,-45.95,0,*6F
1512144378.19,62276,7.94,72588.8,-15.67,-45.33,-45.33,0,*62
1512144379.4,62277,7.94,72586.0,-15.67,-45.33,-45.33,0,*63
1512144380.67,62278,7.94,72584.8,-15.65,-45.73,-45.53,0,*6C
1512144381.91,62279,7.94,72586.0,-15.65,-45.95,-45.87,0,*6C
1512144383.12,62280,8.0,72590.5,-15.67,-45.87,-45.87,0,*6B
1512144384.35,62281,7.94,72588.3,-15.67,-45.95,-46.01,0,*64
1512144385.62,62282,7.94,72590.0,-15.65,-45.13,-45.27,0,*6C
1512144386.88,62283,7.94,72586.0,-15.65,-45.73,-45.67,0,*6F
1512144388.14,62284,7.94,72588.5,-15.65,-45.47,-45.33,0,*6E
1512144389.38,62285,7.94,72588.3,-15.67,-45.73,-45.53,0,*6C
1512144390.63,62286,7.94,72584.3,-15.67,-46.15,-45.95,0,*66
1512144391.88,62287,7.94,72590.5,-15.65,-46.35,-46.35,0,*6E
1512144393.12,62288,7.94,72584.8,-15.65,-46.55,-46.35,0,*67
1512144394.4,62289,7.94,72584.3,-15.65,-46.35,-46.15,0,*62
1512144395.67,62290,7.94,72582.5,-15.65,-46.41,-46.35,0,*6B
1512144396.91,62291,7.94,72584.3,-15.67,-46.41,-46.21,0,*6D
1512144398.18,62292,7.94,72586.5,-15.65,-46.21,-46.15,0,*6D
1512144399.41,62293,7.94,72588.3,-15.67,-45.73,-45.67,0,*6C
1512144400.65,62294,7.94,72590.3,-15.67,-45.95,-45.73,0,*66
1512144401.91,62295,7.94,72590.5,-15.67,-46.35,-46.15,0,*6D
1512144403.13,62296,7.94,72588.0,-15.67,-46.35,-46.21,0,*69
1512144404.35,62297,7.94,72590.0,-15.67,-46.21,-46.01,0,*6F
1512144405.61,62298,7.94,72586.3,-15.65,-46.01,-46.01,0,*60
1512144406.83,62299,7.94,72586.0,-15.67,-45.95,-46.01,0,*6D
1512144408.04,62300,7.94,72586.0,-15.67,-45.87,-45.87,0,*62
1512144409.27,62301,7.94,72584.5,-15.67,-46.01,-46.01,0,*63
1512144410.51,62302,7.94,72586.8,-15.67,-45.87,-45.73,0,*6B
1512144411.72,62303,7.94,72584.0,-15.67,-45.53,-45.67,0,*66
1512144412.94,62304,7.94,72588.3,-15.67,-46.01,-45.95,0,*68
1512144414.18,62305,7.94,72586.3,-15.67,-45.87,-45.73,0,*6C
1512144415.39,62306,7.94,72590.8,-15.67,-45.67,-45.67,0,*64
1512144416.61,62307,7.94,72590.8,-15.67,-45.67,-45.53,0,*62
1512144417.83,62308,7.94,72584.8,-15.67,-46.01,-45.87,0,*67
1512144419.05,62309,7.94,72586.8,-15.67,-46.01,-45.87,0,*66
1512144420.31,62310,7.94,72588.8,-15.65,-45.73,-45.67,0,*64
1512144421.53,62311,7.94,72590.5,-15.67,-46.21,-46.01,0,*60
1512144422.74,62312,7.94,72588.8,-15.67,-45.87,-45.67,0,*6F
1512144424.02,62313,7.94,72592.0,-15.65,-46.21,-46.15,0,*65
1512144425.23,62314,7.94,72584.3,-15.67,-46.21,-45.95,0,*6B
1512144426.47,62315,7.94,72584.3,-15.67,-45.95,-45.73,0,*6E
1512144427.69,62316,7.94,72584.5,-15.67,-45.67,-45.53,0,*62
1512144428.91,62317,7.94,72588.5,-15.67,-46.21,-46.01,0,*66
1512144430.13,62318,7.94,72586.5,-15.67,-46.01,-45.95,0,*65
1512144431.36,62319,7.94,72590.0,-15.67,-45.73,-45.67,0,*6F
1512144432.6,62320,7.94,72588.0,-15.67,-45.73,-45.67,0,*65
1512144433.83,62321,7.94,72584.0,-15.67,-45.87,-45.73,0,*6A
1512144435.11,62322,7.94,72590.5,-15.67,-46.15,-46.15,0,*62
1512144436.39,62323,7.94,72588.8,-15.65,-46.15,-46.21,0,*66
1512144437.6,62324,7.94,72586.5,-15.67,-46.01,-45.87,0,*69
1512144438.85,62325,7.94,72580.5,-15.65,-46.01,-45.95,0,*69
1512144440.07,62326,7.94,72582.5,-15.67,-45.67,-45.53,0,*61
1512144441.33,62327,7.94,72588.8,-15.67,-45.73,-45.73,0,*67
1512144442.55,62328,7.94,72588.0,-15.67,-46.01,-45.95,0,*66
1512144443.77,62329,7.94,72588.5,-15.67,-46.35,-46.21,0,*6C
1512144445.02,62330,7.94,72590.5,-15.65,-46.01,-46.01,0,*63
1512144446.24,62331,7.94,72588.0,-15.67,-45.95,-45.87,0,*63
1512144447.47,62332,7.94,72586.8,-15.67,-45.73,-45.67,0,*66
1512144448.71,62333,7.94,72584.3,-15.67,-46.01,-45.73,0,*64
1512144449.97,62334,7.94,72584.5,-15.67,-45.73,-45.73,0,*65
1512144451.2,62335,7.94,72584.3,-15.67,-45.73,-45.67,0,*61
1512144452.45,62336,7.94,72586.0,-15.67,-46.15,-45.95,0,*6C
1512144453.7,62337,7.94,72588.0,-15.67,-46.35,-46.15,0,*64
1512144454.95,62338,7.94,72590.8,-15.67,-46.21,-46.15,0,*6E
1512144456.17,62339,7.94,72590.0,-15.67,-46.35,-46.21,0,*6D
1512144457.39,62340,7.94,72590.8,-15.67,-45.87,-45.87,0,*66
1512144458.64,62341,7.94,72584.5,-15.69,-45.53,-45.53,0,*69
1512144459.9,62342,7.94,72584.5,-15.67,-45.73,-45.73,0,*64
1512144461.16,62343,7.94,72588.0,-15.69,-45.95,-45.73,0,*63
1512144462.46,62344,7.94,72590.3,-15.69,-46.27,-46.27,0,*6C
1512144463.74,62345,7.94,72592.5,-15.71,-46.27,-46.27,0,*64
1512144464.95,62346,7.94,72586.8,-15.67,-45.95,-45.87,0,*63
1512144466.17,62347,7.94,72584.5,-15.67,-45.67,-45.67,0,*61
1512144467.41,62348,7.94,72588.0,-15.65,-45.95,-45.87,0,*6F
1512144468.66,62349,7.94,72586.5,-15.67,-46.01,-46.15,0,*6A
1512144469.95,62350,7.94,72586.3,-15.69,-46.41,-46.27,0,*69
1512144471.21,62351,7.94,72586.3,-15.67,-46.15,-46.01,0,*63
1512144472.43,62352,7.94,72582.5,-15.67,-46.01,-46.01,0,*65
1512144473.68,62353,7.94,72580.5,-15.69,-46.21,-46.21,0,*6A
1512144474.95,62354,7.94,72584.0,-15.69,-46.21,-46.07,0,*69
1512144476.22,62355,7.94,72586.8,-15.69,-46.41,-46.21,0,*6A
1512144477.44,62356,7.94,72586.8,-15.67,-46.35,-46.35,0,*61
1512144478.74,62357,7.94,72588.8,-15.69,-46.41,-46.27,0,*6E
1512144479.98,62358,7.94,72590.3,-15.69,-46.01,-45.95,0,*6F
1512144481.21,62359,7.94,72586.5,-15.71,-45.53,-45.53,0,*69
1512144482.45,62360,7.94,72590.8,-15.67,-45.47,-45.33,0,*67
1512144483.69,62361,7.94,72584.5,-15.67,-45.53,-45.47,0,*60
1512144484.94,62362,7.94,72586.0,-15.69,-45.53,-45.41,0,*6B
1512144486.19,62363,7.94,72590.8,-15.69,-46.01,-46.01,0,*69
1512144487.47,62364,7.94,72588.8,-15.69,-46.27,-46.21,0,*68
1512144488.69,62365,7.94,72586.3,-15.67,-46.35,-46.21,0,*64
1512144489.99,62366,7.94,72588.8,-15.69,-46.07,-46.27,0,*6E
1512144491.26,62367,7.94,72588.8,-15.69,-46.21,-46.07,0,*69
1512144492.53,62368,7.94,72594.3,-15.69,-46.21,-46.07,0,*66
1512144493.76,62369,7.94,72590.8,-15.71,-46.21,-46.01,0,*68
1512144495.03,62370,7.94,72588.8,-15.69,-46.41,-46.21,0,*6D
1512144496.32,62371,7.94,72584.0,-15.69,-46.41,-46.27,0,*6A
1512144497.62,62372,7.94,72584.3,-15.69,-46.49,-46.41,0,*61
1512144498.89,62373,7.94,72584.0,-15.71,-46.27,-46.41,0,*61
1512144500.17,62374,7.94,72584.0,-15.71,-46.27,-46.07,0,*64
1512144501.41,62375,7.94,72584.3,-15.71,-46.27,-46.21,0,*61
1512144502.68,62376,7.94,72586.8,-15.71,-46.41,-46.41,0,*64
1512144503.95,62377,7.94,72590.3,-15.73,-46.49,-46.35,0,*6C